Hourly Data Report for September 05, 2017

All times are specified in Local Standard Time (LST). Add 1 hour to adjust for Daylight Saving Time where and when it is observed.

DOAKTOWN AUTO RCS
NEW BRUNSWICK

46°35'06.090" N
66°00'35.071" W
43.00 m
8101201
71038
ADN

Download Data

Hourly Data (September 2017)
Hourly Data Report for September 5, 2017
Temp Definition
°C
Dew Point Temp Definition
°C
Rel Hum Definition
%
Wind Dir Definition
10's deg

Wind Spd Definition
km/h
Visibility Definition
km
Stn Press Definition
kPa
Hmdx Definition


Wind Chill Definition


Weather Definition


TIME
00:00 17.0 12.5 75 21 7   100.06     LegendNANA
01:00 16.0 12.2 78 22 7   100.07     LegendNANA
02:00 15.0 12.1 83 23 6   100.04     LegendNANA
03:00 13.2 11.3 88 25 1   100.00     LegendNANA
04:00 13.0 11.6 91 28 1   99.96     LegendNANA
05:00 14.9 12.6 86 26 2   99.90     LegendNANA
06:00 12.9 11.7 92   0   99.97     LegendNANA
07:00 15.6 13.8 89 19 5   99.94     LegendNANA
08:00 17.2 14.0 81 22 9   99.99     LegendNANA
09:00 19.0 14.2 74 21 13   99.97     LegendNANA
10:00 20.4 14.5 69 21 15   99.99     LegendNANA
11:00 21.6 14.9 66 22 16   100.03 26   LegendNANA
12:00 22.7 15.6 64 23 15   100.03 27   LegendNANA
13:00 24.3 15.8 59 22 16   100.02 29   LegendNANA
14:00 24.4 16.1 60 21 12   100.04 29   LegendNANA
15:00 24.1 16.4 62 22 11   100.06 29   LegendNANA
16:00 24.4 16.6 62 18 8   100.12 29   LegendNANA
17:00 21.3 16.1 73 17 9   100.19 26   LegendNANA
18:00 20.3 16.2 77 17 7   100.25 25   LegendNANA
19:00 19.0 16.1 83 14 4   100.28     LegendNANA
20:00 18.3 16.2 87 22 2   100.36     LegendNANA
21:00 18.5 16.4 88 18 5   100.38     LegendNANA
22:00 18.5 16.3 88 21 6   100.45     LegendNANA
23:00 18.2 16.3 88 17 7   100.36     LegendNANA

Notes on Data Quality.

Legend

  • E = Estimated
  • M = Missing
  • NA = Not Available
  • ‡ = Partner data that is not subject to review by the National Climate Archives
Date modified: